User: anonymous
Location: Albany
(35.0000°S, 118.0000°E)
Time: 19:27:42
(UTC-04:00)
Language:

TRMM - Orbit

View from above orbital plane
View from above orbital plane
View from above satellite
View from above satellite

Ground track
Ground track

The orbit data is extracted from the following two-line orbital elements,

1 25063U 97074A   14259.45333789  .00027989  00000-0  35691-3 0  7413
2 25063 034.9544 255.9326 0002547 211.0626 279.6434 15.58275795958927
Epoch (UTC): 16 September 2014 10:52:48
Eccentricity: 0.0002547
inclination: 34.9544°
perigee height: 391 km
apogee height: 394 km
right ascension of ascending node: 255.9326°
argument of perigee: 211.0626°
revolutions per day: 15.58275795
mean anomaly at epoch: 279.6434°
orbit number at epoch: 95892

The dashed part of the orbit path shows where the satellite is in the earth's shadow,  

DLR